Cozumel (Civ/Mil, Mexico

10:56 AM on February 23, 2017 (GMT +0000)
Cozumel International

Weather History for MMCZ - June, 2013

Change the Weather History Date:

Monday, June 24, 2013

  Actual Average Record
Temperature  
Mean Temperature 78 °F -  
Max Temperature 86 °F 88 °F 93 °F (2004)
Min Temperature 69 °F 76 °F 69 °F (2013)
Cooling Degree Days 12    
Growing Degree Days 28 (Base 50)    
Moisture  
Dew Point 73 °F    
Average Humidity 86    
Maximum Humidity 100    
Minimum Humidity 66    
Precipitation  
Precipitation 0.00 in - - ()
Sea Level Pressure  
Sea Level Pressure 30.04 in    
Wind  
Wind Speed 4 mph ()    
Max Wind Speed 15 mph    
Max Gust Speed -    
Visibility 7.6 miles    
Events      
Averages and records for this station are not official NWS values.
T = Trace of Precipitation, MM = Missing Value Source: Averaged Metar Reports

Daily Weather History Graph

Daily Weather History Graph

Search for Another Location

Airport or City:

Trip Planner

Search our weather history database for the weather conditions in past years. The results will help you decide how hot, cold, wet, or windy it might be!

Date:

Astronomy

Jun. 24, 2013 Rise Set
Actual Time 6:08 AM CDT 7:31 PM CDT
Civil Twilight 5:44 AM CDT 7:56 PM CDT
Nautical Twilight 5:14 AM CDT 8:25 PM CDT
Astronomical Twilight 4:44 AM CDT 8:56 PM CDT
Moon 8:50 PM CDT (6/24) 7:23 AM CDT (6/24)
Length of Visible Light 14h 11m
Length of Day
13h 22m
Full, 98% of the Moon is Illuminated
Jun 24
Full
Jun 29
Last Quarter
Jul 8
New
Jul 15
First Quarter
Jul 22
Full

Hourly Weather History & Observations

Time (CDT) Temp. Heat Index Dew Point Humidity Pressure Visibility Wind Dir Wind Speed Gust Speed Precip Events Conditions
12:54 AM 71.6 °F - 69.8 °F 94% 30.02 in 7.0 mi Calm Calm - N/A   Partly Cloudy
1:42 AM 69.8 °F - 69.8 °F 100% 30.04 in 7.0 mi ENE 3.5 mph - N/A   Partly Cloudy
2:41 AM 73.4 °F - 71.6 °F 94% 30.02 in 7.0 mi Calm Calm - N/A   Partly Cloudy
3:47 AM 71.6 °F - 71.6 °F 100% 30.05 in 7.0 mi Calm Calm - N/A   Partly Cloudy
4:54 AM 69.8 °F - 69.8 °F 100% 30.02 in 7.0 mi Calm Calm - N/A   Partly Cloudy
5:47 AM 69.8 °F - 69.8 °F 100% 30.01 in 7.0 mi Calm Calm - N/A   Partly Cloudy
6:49 AM 69.8 °F - 69.8 °F 100% 30.01 in 7.0 mi Calm Calm - N/A   Partly Cloudy
7:41 AM 75.2 °F - 75.2 °F 100% 30.04 in 8.0 mi East 4.6 mph - N/A   Scattered Clouds
8:43 AM 80.6 °F 86.2 °F 75.2 °F 84% 30.05 in 8.0 mi East 9.2 mph - N/A   Scattered Clouds
9:40 AM 80.6 °F 85.4 °F 73.4 °F 79% 30.09 in 8.0 mi ENE 9.2 mph - N/A   Scattered Clouds
10:40 AM 80.6 °F 85.4 °F 73.4 °F 79% 30.07 in 8.0 mi ENE 8.1 mph - N/A   Mostly Cloudy
11:43 AM 82.4 °F 89.5 °F 75.2 °F 79% 30.07 in 8.0 mi ENE 15.0 mph - N/A   Mostly Cloudy
12:41 PM 82.4 °F 88.2 °F 73.4 °F 74% 30.04 in 8.0 mi ENE 9.2 mph - N/A   Mostly Cloudy
1:42 PM 86.0 °F 95.1 °F 75.2 °F 70% 30.05 in 8.0 mi ENE 15.0 mph - N/A   Scattered Clouds
2:47 PM 86.0 °F 95.1 °F 75.2 °F 70% 30.05 in 8.0 mi ENE 13.8 mph - N/A   Scattered Clouds
3:40 PM 84.2 °F 89.6 °F 71.6 °F 66% 30.05 in 8.0 mi East 13.8 mph - N/A   Scattered Clouds
4:40 PM 84.2 °F 89.6 °F 71.6 °F 66% 30.02 in 8.0 mi East 9.2 mph - N/A   Scattered Clouds
5:40 PM 82.4 °F 88.2 °F 73.4 °F 74% 30.00 in 8.0 mi East 8.1 mph - N/A   Scattered Clouds
6:40 PM 80.6 °F 85.4 °F 73.4 °F 79% 29.97 in 8.0 mi East 8.1 mph - N/A   Scattered Clouds
7:40 PM 77.0 °F - 73.4 °F 89% 30.01 in 8.0 mi East 4.6 mph - N/A   Scattered Clouds
8:40 PM 77.0 °F - 73.4 °F 89% 30.02 in 8.0 mi ESE 4.6 mph - N/A   Scattered Clouds
9:45 PM 75.2 °F - 73.4 °F 94% 30.07 in 7.0 mi East 4.6 mph - N/A   Partly Cloudy
10:40 PM 73.4 °F - 73.4 °F 100% 30.05 in 7.0 mi Calm Calm - N/A   Partly Cloudy
11:43 PM 73.4 °F - 71.6 °F 94% 30.05 in 7.0 mi East 3.5 mph - N/A   Partly Cloudy